This is the latest recevied weather packets stored in our database for station/object WP3OF. If no packets are shown the sender has not sent any weather packets the latest 10 day(s).
| Time | Temp. | Humidity | Pressure | Rain* | Wind** | Luminosity | Snow |
|---|---|---|---|---|---|---|---|
| 1778161565 | 27.22° C | 74% | 1020.3 hPa | 0 mm | - | - | - |
| 1778161261 | 26.67° C | 74% | 1020 hPa | 0 mm | - | - | - |
| 1778160957 | 27.22° C | 72% | 1020 hPa | 0 mm | - | - | - |
| 1778160655 | 26.67° C | 72% | 1020.2 hPa | 0 mm | - | - | - |
| 1778160352 | 26.67° C | 73% | 1020.2 hPa | 0 mm | - | - | - |
| 1778160048 | 27.22° C | 70% | 1020.2 hPa | 0 mm | - | - | - |
| 1778159745 | 27.22° C | 71% | 1020.1 hPa | 0 mm | - | - | - |
| 1778159443 | 26.67° C | 71% | 1020.2 hPa | 0 mm | - | - | - |
| 1778159139 | 26.67° C | 73% | 1020.2 hPa | 0 mm | - | - | - |
| 1778158837 | 26.11° C | 73% | 1020.2 hPa | 0 mm | - | - | - |
| 1778158536 | 26.67° C | 73% | 1020 hPa | 0 mm | - | - | - |
| 1778158232 | 27.22° C | 70% | 1020 hPa | 0 mm | - | - | - |
| 1778157929 | 27.22° C | 66% | 1020 hPa | 0 mm | - | - | - |
| 1778157627 | 27.22° C | 66% | 1019.7 hPa | 0 mm | - | - | - |
| 1778157325 | 27.22° C | 67% | 1019.9 hPa | 0 mm | - | - | - |
| 1778157021 | 27.22° C | 70% | 1019.9 hPa | 0 mm | - | - | - |
| 1778156716 | 27.22° C | 65% | 1019.8 hPa | 0 mm | - | - | - |
| 1778156412 | 27.22° C | 66% | 1019.9 hPa | 0 mm | - | - | - |
| 1778156108 | 26.67° C | 66% | 1019.8 hPa | 0 mm | - | - | - |
| 1778155804 | 27.22° C | 67% | 1019.3 hPa | 0 mm | - | - | - |
| 1778155500 | 27.78° C | 63% | 1019.5 hPa | 0 mm | - | - | - |
| 1778155197 | 27.22° C | 65% | 1019.2 hPa | 0 mm | - | - | - |
| 1778154894 | 26.67° C | 66% | 1019.1 hPa | 0 mm | - | - | - |
| 1778154589 | 26.67° C | 67% | 1019.3 hPa | 0 mm | - | - | - |
| 1778154286 | 26.67° C | 67% | 1019.1 hPa | 0 mm | - | - | - |
* Rain latest hour (hover to see other rain measurements)
** Current wind speed in m/s (hover to see current wind gust speed)